Location: Unspecified
(0.0000°N, 0.0000°E)
Time: 06:08:21
(UTC+00:00)

Tiros 1 - Pass Details

Date: 05 October 2020
Orbit: 630 x 663 km, 48.4° (Epoch: 28 October)

Event Time Altitude Azimuth Distance (km) Brightness Sun altitude
Rises 09:17:13 0° 228° (SW) 2,911 10.3 51.9°
Reaches altitude 10° 09:19:35 10° 234° (SW) 2,002 9.5 52.5°
Maximum altitude 09:24:03 50° 309° (NW) 805 7.9 53.6°
Drops below altitude 10° 09:28:30 10° 24° (NNE) 2,002 9.9 54.7°
Sets 09:30:53 0° 30° (NNE) 2,911 10.7 55.3°
